Location: Unspecified
(22.6800°N, 112.2000°E)
Time: 08:14:07
(UTC+08:00)

Courier 1B Rocket - Pass Details

Date: 07 August 2021
Orbit: 920 x 1202 km, 28.3° (Epoch: 22 September)

Event Time Altitude Azimuth Distance (km) Brightness Sun altitude
Exits shadow 03:43:15 63° 324° (NW) 1,087 5.1 -30.0°
Maximum altitude 03:44:10 72° 14° (NNE) 1,021 5.1 -29.8°
Drops below altitude 10° 03:50:32 10° 99° (E) 2,646 7.8 -28.6°
Sets 03:53:06 0° 101° (E) 3,569 8.6 -28.1°
